Temperature
19 17 17 17 18 19 18 19 19 19 20 20 20 20 21 22 22 21 22 22 22 22 22 22 22 21 21 20 19 19 18 18 17 16 16 15 15 14 14 14 14 13 13 13
18 18 19 19 19 19 19 19 19 19 20 21 20 20 21 21 21 22 22 22 22 22 22 22 21 21 21 20 20 19 18 18 17 16 16 15 14 14 14 14 13 13 13 13
19 19 20 20 19 19 19 19 19 20 21 21 21 20 21 22 22 23 23 23 23 22 22 22 21 21 21 20 20 19 18 18 17 16 16 15 14 14 14 14 13 13 13 13
19 20 21 20 20 20 19 20 21 21 20 19 20 19 20 21 21 22 22 23 23 22 22 22 21 21 21 20 20 19 18 18 17 16 16 15 14 14 14 14 13 13 13 13
20 21 21 21 21 21 20 22 21 21 20 19 19 19 19 20 22 22 22 23 23 23 23 22 22 22 21 20 20 19 18 18 17 16 16 15 15 14 14 14 14 13 13 13
21 22 22 22 22 23 22 21 20 18 18 19 20 19 20 19 22 23 22 23 23 23 23 22 22 21 21 20 19 19 18 18 17 16 16 15 15 14 14 14 14 14 13 13
22 22 23 23 23 22 21 18 18 18 17 18 19 20 19 21 22 23 23 23 24 23 23 22 22 21 21 20 19 19 18 18 17 16 16 15 15 14 14 14 14 14 14 13
21 20 23 24 23 22 21 19 18 19 18 18 19 20 20 22 23 24 24 24 24 24 23 23 22 22 21 20 20 19 18 18 17 16 16 15 15 14 14 14 14 14 14 14
20 21 23 24 24 23 22 20 19 17 18 18 19 20 21 23 23 23 23 23 23 24 23 23 22 22 21 21 20 19 19 18 17 16 16 15 15 15 14 14 14 14 14 14
21 21 23 24 24 23 22 21 17 18 18 18 19 20 20 22 23 23 22 23 23 23 23 23 22 22 21 21 20 19 19 18 17 17 16 15 15 15 15 14 14 14 14 14
21 20 21 22 22 22 23 22 18 16 17 17 18 19 20 21 22 22 22 23 24 24 23 23 23 22 21 21 20 19 19 18 17 17 16 16 15 15 15 15 14 14 14 14
20 18 19 21 22 22 22 22 19 18 18 17 17 18 20 21 21 22 22 23 23 23 23 23 23 22 21 21 20 19 19 18 17 17 16 16 15 15 15 15 15 14 14 14
20 18 18 19 19 21 22 22 20 17 17 16 17 19 20 20 20 21 21 22 22 23 23 22 22 22 21 21 20 19 19 18 18 17 16 16 15 15 15 15 15 15 14 14
20 18 18 19 19 20 21 22 21 19 17 18 18 19 19 19 19 20 21 21 22 22 22 22 22 21 21 21 20 20 19 18 18 17 16 16 16 16 15 15 15 15 15 15
18 19 20 20 20 21 21 21 21 20 18 18 19 19 19 19 19 19 20 20 20 20 21 21 21 21 21 20 20 20 19 18 18 17 17 17 16 16 16 15 15 15 15 15
17 18 19 19 20 20 20 20 20 20 20 19 19 19 19 19 19 19 19 19 19 19 20 20 20 21 21 20 20 20 19 19 18 17 17 17 16 16 16 15 15 15 15 15
16 17 18 17 18 19 19 20 20 19 19 19 18 18 18 18 17 18 18 18 18 18 19 19 20 20 20 21 20 20 20 19 18 18 17 17 17 16 16 16 15 15 15 15
16 16 15 16 18 19 19 19 19 18 18 18 17 17 17 17 18 18 18 18 18 18 18 19 20 20 20 20 20 20 20 19 19 18 18 17 17 16 16 16 16 16 15 15
15 16 15 15 17 17 18 19 19 18 17 17 17 16 17 18 17 17 17 17 17 18 18 18 19 20 20 20 20 20 20 19 19 18 18 18 17 17 16 16 16 16 15 15
15 14 15 15 17 17 18 19 19 18 16 16 16 15 16 16 14 14 16 17 17 17 17 18 18 19 19 19 19 19 19 19 19 19 18 18 18 17 17 16 16 16 16 15
16 15 14 14 15 16 17 18 18 17 15 16 16 16 16 15 14 16 16 16 17 17 17 17 18 18 18 18 19 19 19 19 19 19 19 18 18 17 17 17 16 16 16 15
16 15 14 14 15 15 17 17 16 15 16 16 16 16 16 15 15 16 16 16 16 16 16 16 17 17 17 17 17 18 18 18 18 18 18 18 18 18 17 17 16 16 16 15
14 14 13 14 14 15 16 16 16 16 16 15 15 15 15 15 15 15 15 15 15 15 15 15 15 16 16 16 16 16 17 17 18 18 18 18 18 18 18 17 17 16 16 16
13 14 13 13 14 15 15 16 16 15 15 15 15 15 15 14 14 14 14 14 14 14 14 14 14 14 15 15 15 15 16 16 17 18 18 18 18 18 18 17 17 16 16 16
12 13 12 12 12 14 15 15 15 15 15 14 14 14 14 14 13 13 13 13 13 13 13 13 13 13 13 14 14 14 15 15 16 17 17 17 18 18 17 17 17 17 17 16
11 12 12 12 14 12 14 14 14 14 14 14 14 13 13 13 12 12 12 12 12 12 12 12 12 12 12 12 13 13 13 14 14 15 16 16 17 17 17 17 17 17 16 16
Wind_Speed
4 5 4 6 6 5 4 3 4 6 4 3 8 11 12 8 9 10 10 11 11 11 9 9 11 12 11 10 9 9 9 7 5 4 4 3 1 0 0 0 1 2 3 4
5 2 7 7 5 4 2 0 3 4 5 4 6 10 11 9 11 11 12 12 12 10 8 9 10 11 11 11 10 9 9 8 6 4 3 3 2 1 1 1 1 1 2 2
6 5 7 7 6 4 3 4 5 4 2 2 2 8 7 5 6 7 8 10 11 14 15 13 12 10 10 11 11 10 9 8 7 6 4 3 3 3 2 1 1 2 1 1
2 4 7 7 6 7 4 8 6 3 1 3 1 3 8 4 2 6 7 8 10 11 12 13 12 12 12 11 10 10 10 9 7 7 6 5 3 2 3 2 2 2 2 1
4 5 7 7 7 8 7 4 3 2 1 2 3 1 8 4 2 6 7 8 10 11 14 15 14 13 11 10 10 10 10 8 7 7 7 6 4 3 2 1 1 1 2 2
3 3 5 6 5 5 2 4 5 5 4 2 3 1 5 4 5 5 5 6 9 11 12 12 11 10 9 8 9 10 10 8 7 7 7 7 6 4 2 2 2 1 1 2
2 1 2 3 2 2 5 5 5 7 5 4 4 1 6 7 5 5 6 7 8 10 11 11 11 11 10 11 11 10 11 9 8 8 7 7 6 5 5 4 3 3 2 2
3 2 3 2 4 3 3 7 6 3 3 5 5 1 6 6 4 1 3 6 8 9 10 12 13 13 12 12 12 11 11 9 9 8 7 6 6 5 4 5 4 4 4 4
4 2 3 2 3 5 3 2 6 6 1 2 5 4 6 4 3 1 2 4 7 9 10 12 12 12 12 12 12 13 12 9 9 8 7 6 6 6 5 5 4 3 4 4
4 2 2 1 5 3 4 6 6 4 2 2 6 3 4 4 4 2 3 5 7 8 8 9 10 11 11 12 11 11 11 11 9 9 8 6 6 7 6 5 5 4 4 3
4 4 4 3 1 2 1 2 5 4 5 4 1 6 5 6 6 5 6 6 7 8 8 9 9 10 10 9 9 10 10 9 9 9 7 7 6 6 6 5 5 5 4 4
3 5 1 4 5 3 4 4 6 4 1 4 4 7 7 4 5 3 4 4 3 5 6 7 8 8 8 9 9 10 10 10 10 9 8 8 7 6 6 6 6 5 5 5
4 5 4 7 8 6 2 1 5 6 5 4 3 6 5 6 6 6 4 4 3 2 2 3 4 7 9 9 10 10 10 10 10 9 9 8 7 7 8 7 6 6 5 4
4 4 5 4 6 5 5 5 2 5 3 4 6 7 7 6 6 7 7 5 4 3 2 2 4 6 7 8 9 10 10 10 10 9 9 9 9 9 8 7 7 7 6 5
5 3 1 4 4 2 3 6 5 5 7 8 6 3 4 3 3 5 7 8 8 7 5 3 4 6 6 7 8 9 10 10 10 10 10 11 9 8 8 7 7 7 6 6
4 2 4 5 5 6 6 8 6 5 3 4 4 0 2 1 5 9 10 9 9 9 8 7 5 5 6 9 9 9 10 10 10 12 12 11 9 8 8 8 7 7 6 6
3 3 2 4 6 6 5 5 1 1 2 3 4 2 1 6 9 8 8 9 8 9 9 9 7 6 7 8 10 11 12 10 10 12 12 11 10 10 9 9 8 8 7 6
4 3 3 2 3 3 6 2 4 7 6 5 5 3 3 4 5 7 8 9 10 11 11 11 10 8 6 5 7 8 8 9 11 12 12 11 11 10 9 9 9 8 6 6
9 6 4 3 2 6 6 3 1 4 4 5 4 4 4 1 4 7 10 9 8 9 9 9 9 7 6 4 4 5 7 9 10 11 12 12 12 11 10 10 9 8 6 6
6 5 4 3 3 5 6 5 2 7 2 4 4 5 5 5 5 5 9 9 10 10 10 11 11 10 8 7 3 4 7 8 11 12 13 12 12 12 12 12 10 7 6 7
3 3 4 5 6 6 5 6 2 3 5 2 3 5 5 3 2 5 7 9 9 9 10 11 11 11 10 9 5 3 5 8 11 9 10 11 12 13 12 11 8 7 7 7
2 2 3 4 4 6 5 4 2 4 3 3 3 4 4 2 2 5 7 9 10 11 11 11 11 11 10 10 8 6 6 8 6 6 9 11 11 12 11 10 9 8 9 8
2 4 5 5 5 3 1 3 3 4 4 3 2 2 2 2 3 5 6 7 8 9 10 10 10 11 11 10 9 8 9 8 5 5 8 10 11 11 10 11 11 8 8 8
4 2 1 1 3 1 1 3 3 4 4 3 2 2 2 1 3 4 5 6 7 8 8 9 10 12 13 12 11 10 10 8 5 6 8 8 10 10 9 9 10 10 10 9
6 2 1 4 4 2 1 2 3 3 3 2 1 1 1 1 3 3 4 5 6 7 7 7 9 10 12 12 12 12 10 8 7 6 6 6 7 9 9 9 8 10 11 12
6 7 6 8 7 6 6 4 3 3 2 2 2 0 1 0 2 3 4 5 5 6 7 8 9 10 11 12 12 12 11 9 8 6 5 5 5 6 6 7 4 1 5 10
Wind_Direction
119 96 143 186 177 162 147 176 228 249 261 239 246 262 266 238 219 215 211 208 201 201 188 164 156 152 148 151 150 147 145 148 131 114 118 119 125 149 72 299 84 66 47 34
78 156 190 170 172 167 128 143 269 273 254 231 261 271 270 236 215 211 205 204 200 189 167 165 160 157 157 159 159 153 152 152 145 142 150 158 159 181 193 269 351 31 49 28
150 202 176 158 168 176 214 210 232 246 311 273 308 315 301 274 219 212 205 199 191 184 176 173 168 167 162 163 165 163 160 155 152 142 120 91 67 44 28 346 298 291 290 23
188 203 165 164 193 182 230 227 228 241 41 309 73 299 305 301 235 209 203 190 187 183 174 172 171 172 175 173 164 157 157 155 154 142 133 136 144 174 221 226 243 273 279 307
222 180 162 176 203 186 215 228 227 258 152 342 356 142 296 326 234 234 216 195 187 179 175 177 180 179 177 166 158 156 152 154 157 149 144 142 155 192 220 228 244 265 292 290
214 190 171 189 202 183 173 46 31 39 66 6 288 137 287 280 242 235 223 200 190 181 180 180 177 167 166 157 152 153 152 159 163 156 154 158 168 180 180 199 215 238 268 285
10 320 238 164 94 25 78 73 30 16 14 278 291 118 261 270 262 211 196 195 188 181 175 173 171 172 170 165 162 160 159 165 172 166 170 177 182 183 189 199 201 196 213 241
112 282 253 185 156 173 149 132 142 161 241 292 348 325 272 284 283 229 172 174 171 177 181 182 183 179 177 174 169 166 168 171 177 177 185 189 190 186 199 204 195 194 205 218
139 264 277 206 161 134 115 137 167 139 130 5 334 322 319 337 348 48 115 150 179 187 189 189 187 184 180 178 178 175 173 176 183 185 186 192 196 191 199 201 191 192 206 214
132 121 309 311 51 27 143 146 87 88 103 2 330 307 260 272 265 252 203 199 205 202 198 196 192 190 188 184 181 176 174 180 185 186 188 193 199 197 196 188 188 194 205 206
74 102 345 22 107 239 23 70 99 107 139 135 314 285 247 235 239 233 236 232 222 211 205 201 200 196 189 182 178 178 179 179 184 189 192 192 199 199 193 195 202 201 203 199
54 105 34 288 284 212 170 172 141 136 192 155 168 271 293 279 279 286 280 278 252 224 216 206 198 188 184 186 187 186 185 184 189 189 188 194 197 191 194 208 214 210 204 202
77 90 53 354 346 354 358 216 151 134 125 149 165 268 320 4 359 359 345 323 305 276 249 222 199 194 194 194 194 193 192 192 190 185 187 194 197 196 202 211 214 209 204 203
93 96 143 185 242 274 298 299 245 134 157 211 218 246 316 344 6 5 5 354 344 334 291 239 219 217 212 203 198 198 199 194 189 186 188 195 202 204 208 208 206 208 204 200
73 94 175 235 260 292 285 290 276 215 201 196 226 222 281 318 16 15 19 22 24 9 348 296 249 231 221 215 210 204 202 197 191 188 195 202 205 205 206 203 205 206 204 204
46 87 34 343 334 347 323 307 289 273 238 196 169 159 321 60 62 41 30 28 21 3 344 324 291 258 233 221 215 210 206 200 192 193 201 203 199 199 202 204 202 200 204 207
356 84 60 294 310 356 319 295 268 28 354 156 158 193 104 76 61 45 28 22 12 356 348 335 312 272 248 232 215 212 209 198 195 200 202 199 196 197 202 202 197 200 204 203
187 125 140 247 354 255 241 279 105 93 41 49 91 73 79 114 106 58 32 19 7 356 349 342 328 305 275 254 230 216 200 194 199 202 203 200 195 198 199 195 199 203 199 199
177 156 152 152 221 277 289 302 167 130 44 3 77 59 35 40 50 18 7 7 359 350 345 338 332 312 300 283 248 211 200 199 201 205 206 204 198 197 195 198 203 201 195 200
139 135 141 152 182 238 253 292 306 111 96 331 78 70 44 54 44 327 336 352 356 352 352 350 349 349 344 325 291 209 208 204 210 213 211 206 199 197 199 202 200 195 193 200
85 124 180 197 215 252 275 305 42 158 213 214 99 87 76 87 200 278 330 353 353 351 350 353 355 355 345 342 333 262 228 224 226 222 211 203 200 200 200 198 193 189 189 188
202 177 197 170 194 248 316 34 113 189 163 132 98 88 85 82 353 351 355 352 352 353 352 353 353 348 347 350 348 318 280 260 245 222 211 206 204 203 200 192 192 186 182 184
210 197 194 190 208 240 14 116 141 138 131 129 113 95 87 46 356 347 345 345 345 347 346 346 345 343 343 349 347 327 308 306 277 229 221 214 205 202 193 190 191 186 184 188
287 347 139 265 240 227 91 111 109 123 136 146 138 117 81 19 333 334 335 336 338 337 340 342 345 343 339 338 339 327 319 319 296 250 232 219 205 202 198 194 192 191 192 193
246 307 295 267 268 299 249 180 172 158 144 130 109 109 76 351 324 320 322 324 327 329 331 338 337 331 327 330 331 329 329 325 312 285 250 228 212 202 199 196 197 197 201 197
211 207 215 241 233 213 238 244 197 165 171 175 161 149 324 300 302 320 317 315 319 324 328 329 329 326 324 325 326 328 328 324 310 301 277 243 218 203 193 185 178 221 205 203
Height
1494 1500 1506 1505 1505 1506 1509 1512 1512 1505 1497 1499 1498 1495 1488 1486 1488 1488 1489 1490 1492 1494 1497 1499 1501 1503 1505 1506 1507 1508 1508 1509 1509 1509 1509 1509 1509 1508 1507 1506 1505 1503 1501 1500
1499 1502 1498 1499 1502 1503 1507 1511 1509 1503 1496 1498 1498 1494 1485 1482 1483 1483 1484 1486 1488 1492 1495 1498 1500 1501 1503 1504 1506 1506 1507 1508 1508 1508 1508 1508 1508 1507 1507 1506 1504 1503 1501 1500
1499 1497 1495 1500 1503 1506 1507 1509 1506 1504 1498 1496 1498 1498 1487 1480 1479 1481 1482 1483 1485 1488 1491 1494 1497 1499 1501 1502 1504 1504 1505 1506 1507 1506 1506 1507 1507 1506 1506 1505 1504 1503 1501 1500
1495 1492 1495 1500 1502 1503 1508 1498 1497 1499 1506 1510 1504 1515 1494 1485 1481 1480 1481 1482 1483 1486 1489 1491 1494 1497 1499 1501 1502 1503 1504 1505 1505 1505 1505 1505 1505 1505 1505 1505 1504 1503 1502 1500
1494 1491 1494 1498 1497 1496 1497 1491 1495 1497 1504 1510 1506 1513 1505 1488 1486 1481 1479 1480 1481 1483 1486 1489 1491 1494 1497 1499 1500 1501 1502 1503 1504 1504 1504 1504 1504 1504 1504 1504 1504 1503 1502 1501
1489 1487 1488 1489 1488 1488 1489 1494 1499 1505 1511 1521 1510 1513 1509 1495 1486 1480 1478 1479 1480 1482 1485 1487 1490 1493 1495 1497 1498 1499 1500 1501 1502 1502 1503 1503 1503 1503 1503 1503 1503 1502 1502 1501
1494 1490 1486 1486 1490 1490 1493 1509 1525 1527 1532 1526 1509 1510 1507 1487 1480 1478 1477 1477 1479 1481 1483 1486 1488 1491 1493 1494 1496 1497 1498 1499 1500 1501 1501 1502 1502 1503 1503 1503 1502 1502 1501 1500
1504 1505 1489 1485 1488 1494 1496 1507 1526 1534 1534 1526 1512 1511 1499 1483 1479 1477 1476 1477 1479 1480 1482 1483 1485 1487 1489 1491 1493 1494 1496 1497 1498 1499 1500 1501 1501 1502 1502 1502 1502 1501 1501 1500
1502 1502 1486 1483 1483 1487 1495 1503 1505 1519 1522 1528 1520 1506 1493 1483 1481 1479 1478 1479 1479 1480 1481 1482 1483 1485 1487 1489 1490 1492 1493 1495 1496 1497 1498 1499 1500 1500 1501 1501 1501 1501 1500 1500
1490 1499 1490 1485 1484 1486 1489 1495 1509 1519 1530 1535 1526 1514 1509 1491 1485 1481 1480 1479 1479 1479 1479 1480 1482 1483 1485 1486 1488 1490 1491 1493 1494 1495 1497 1498 1498 1499 1500 1500 1500 1500 1500 1500
1488 1500 1498 1491 1493 1494 1492 1496 1507 1519 1523 1534 1535 1523 1493 1489 1484 1482 1480 1479 1478 1478 1478 1478 1479 1481 1483 1484 1486 1487 1489 1490 1492 1493 1495 1496 1497 1498 1498 1499 1499 1499 1499 1499
1490 1502 1508 1499 1489 1486 1489 1493 1503 1518 1521 1525 1531 1522 1487 1485 1483 1481 1480 1478 1478 1477 1477 1477 1478 1479 1480 1482 1483 1485 1486 1488 1489 1491 1493 1494 1495 1496 1497 1497 1498 1498 1498 1498
1491 1503 1517 1514 1506 1494 1491 1490 1495 1506 1516 1524 1528 1516 1487 1485 1484 1482 1481 1479 1477 1476 1476 1476 1476 1476 1477 1479 1480 1482 1483 1485 1487 1489 1490 1491 1493 1494 1495 1496 1496 1497 1497 1497
1489 1503 1513 1519 1513 1502 1498 1493 1492 1502 1515 1517 1513 1506 1493 1488 1486 1484 1481 1479 1477 1476 1475 1475 1474 1475 1475 1476 1477 1479 1480 1482 1484 1485 1487 1488 1490 1491 1493 1494 1494 1495 1496 1496
1492 1503 1502 1501 1497 1495 1495 1494 1492 1495 1500 1507 1502 1500 1494 1490 1488 1486 1482 1480 1478 1477 1476 1475 1473 1473 1473 1474 1474 1475 1477 1479 1480 1482 1484 1485 1487 1489 1490 1492 1492 1493 1494 1494
1497 1502 1502 1503 1496 1496 1496 1492 1490 1490 1490 1494 1495 1496 1491 1490 1487 1485 1483 1481 1479 1478 1476 1474 1472 1471 1471 1471 1471 1472 1473 1475 1476 1478 1480 1482 1484 1486 1487 1489 1490 1491 1491 1492
1502 1504 1508 1512 1503 1499 1503 1493 1490 1491 1489 1489 1495 1495 1490 1489 1487 1487 1485 1483 1481 1479 1476 1473 1471 1469 1468 1467 1467 1468 1469 1471 1472 1474 1476 1478 1480 1482 1484 1485 1487 1487 1488 1489
1501 1505 1512 1514 1508 1512 1501 1487 1486 1490 1492 1490 1490 1490 1489 1488 1488 1487 1486 1483 1481 1478 1475 1472 1469 1466 1465 1465 1464 1464 1465 1467 1468 1469 1471 1473 1476 1478 1480 1481 1483 1484 1485 1486
1494 1502 1511 1516 1515 1509 1495 1487 1486 1490 1496 1492 1490 1489 1488 1487 1485 1486 1486 1484 1482 1479 1476 1472 1468 1465 1463 1462 1461 1461 1461 1462 1464 1465 1466 1469 1471 1473 1475 1477 1478 1480 1481 1482
1493 1499 1509 1515 1513 1513 1497 1485 1482 1487 1500 1493 1490 1489 1488 1486 1491 1490 1486 1483 1481 1478 1475 1471 1468 1464 1462 1460 1459 1458 1458 1459 1459 1460 1461 1464 1466 1468 1470 1471 1474 1475 1477 1478
1500 1504 1509 1512 1513 1504 1490 1484 1483 1497 1499 1492 1490 1489 1488 1488 1491 1489 1485 1482 1480 1477 1474 1470 1467 1464 1462 1459 1457 1456 1455 1455 1455 1456 1457 1459 1460 1462 1464 1467 1469 1470 1472 1473
1500 1504 1506 1509 1511 1505 1487 1485 1489 1492 1490 1490 1489 1488 1488 1488 1487 1485 1483 1481 1478 1475 1472 1469 1466 1463 1461 1459 1456 1454 1452 1451 1451 1452 1452 1453 1455 1457 1459 1461 1463 1465 1467 1468
1498 1497 1498 1499 1500 1491 1487 1486 1487 1488 1488 1488 1488 1487 1486 1486 1484 1483 1481 1479 1476 1474 1471 1468 1465 1462 1459 1457 1454 1452 1449 1448 1447 1446 1446 1447 1449 1451 1453 1455 1457 1459 1460 1462
1496 1492 1493 1494 1490 1489 1488 1487 1487 1487 1487 1487 1486 1486 1484 1483 1482 1481 1479 1477 1474 1472 1469 1466 1462 1459 1456 1453 1451 1449 1446 1443 1442 1440 1440 1441 1442 1444 1446 1448 1450 1452 1454 1455
1494 1492 1493 1492 1488 1487 1486 1486 1486 1485 1485 1484 1483 1483 1482 1481 1479 1478 1476 1474 1471 1469 1466 1463 1460 1457 1453 1450 1447 1445 1442 1439 1436 1435 1434 1435 1435 1437 1438 1440 1442 1444 1446 1448
1487 1488 1490 1488 1483 1484 1483 1483 1483 1482 1482 1481 1481 1480 1479 1477 1476 1474 1472 1471 1468 1466 1463 1460 1457 1454 1450 1447 1443 1441 1438 1435 1432 1430 1429 1428 1429 1429 1431 1433 1435 1437 1440 1442